Theta_e
329 328 328 327 326 325 325 324 324 324 324 323 324 324 324 324 323 323 323 323 323 323 323 323 323 324 325 325 326 327 328 328 328 328 328 328 329 329 330 330 330 330
327 327 326 326 324 323 323 323 323 323 323 322 322 322 323 323 322 322 321 321 322 322 321 322 322 323 324 325 326 327 327 327 327 327 327 327 327 328 329 328 328 329
325 325 324 323 323 323 322 322 322 322 321 321 321 321 321 321 321 320 320 320 320 320 320 321 321 322 323 324 325 326 327 326 326 325 326 326 325 326 326 326 326 326
323 323 322 322 322 322 321 321 321 320 320 320 320 320 320 320 319 319 319 319 319 319 320 320 321 321 322 323 324 325 325 324 323 323 324 324 323 323 323 323 323 323
322 321 321 321 321 321 320 320 320 319 319 320 319 319 319 319 318 318 319 319 319 319 319 320 320 320 321 322 322 322 322 321 321 321 322 322 322 321 321 321 321 321
320 320 320 320 320 320 319 319 318 318 318 318 317 317 318 318 318 318 318 318 318 318 319 319 320 319 320 320 320 320 320 319 319 319 320 320 320 320 320 319 320 319
319 319 319 319 319 319 318 318 317 317 317 317 316 316 316 317 317 317 318 318 318 318 319 319 319 318 318 318 318 318 318 318 318 318 318 319 318 318 318 318 318 318
318 318 318 318 318 318 317 316 316 316 316 316 316 315 315 316 316 317 317 317 318 317 318 318 318 317 317 317 317 317 317 317 317 318 318 317 317 317 317 317 317 317
317 317 317 317 317 317 316 316 315 315 315 315 315 315 315 315 315 316 316 317 317 316 316 316 317 316 316 316 316 316 317 317 317 317 316 316 316 316 316 316 316 316
316 316 316 316 316 315 315 315 314 315 315 314 314 314 314 314 315 315 315 315 315 315 315 315 315 315 315 315 315 315 316 316 316 316 315 315 316 315 315 315 315 315
315 315 315 315 314 314 314 314 314 314 314 313 313 313 314 314 314 314 315 315 314 315 314 313 314 315 315 315 315 315 315 315 315 315 315 315 315 315 315 314 314 313
314 314 314 314 313 313 313 313 313 313 312 312 312 313 313 313 313 313 314 314 313 313 313 313 313 314 313 314 314 314 314 314 314 314 314 314 314 315 314 314 313 312
313 313 313 313 312 312 312 312 312 312 311 311 311 312 313 313 313 312 312 312 312 311 311 311 311 311 311 312 313 313 313 313 313 313 313 313 313 313 313 313 313 311
312 312 312 312 312 311 311 311 311 311 310 310 311 311 312 312 312 312 311 311 310 309 309 309 309 309 310 310 312 312 312 312 311 312 312 312 312 311 312 312 312 311
312 312 312 312 311 311 311 310 310 310 310 311 311 311 311 311 311 311 311 310 309 308 307 306 306 307 307 308 309 311 311 310 310 310 310 310 310 310 310 310 311 310
312 312 312 311 311 311 311 310 310 310 310 311 311 310 310 310 310 310 309 309 308 307 305 304 303 304 305 306 307 308 309 309 308 308 308 308 308 309 309 309 309 309
313 312 312 311 311 311 310 311 311 311 310 310 310 309 309 309 309 309 308 308 307 306 304 303 302 302 303 304 305 306 307 307 307 307 306 306 306 307 307 307 307 307
312 312 312 311 311 311 311 311 311 310 309 309 309 309 308 308 308 308 307 307 306 305 304 302 301 301 302 302 303 304 305 306 306 305 305 305 305 305 305 306 305 305
312 312 311 311 311 311 311 310 309 308 308 308 308 308 308 308 307 307 306 306 305 304 304 302 301 300 301 301 302 303 304 305 305 305 304 303 303 304 304 304 304 304
311 312 311 311 311 310 309 308 308 308 308 307 307 307 307 307 307 306 305 305 304 304 303 301 300 300 301 301 302 303 304 305 305 304 304 303 302 302 303 303 303 303
311 311 311 311 310 309 308 308 307 307 307 306 306 306 306 306 306 305 305 304 303 303 302 300 299 299 300 301 302 303 303 304 305 304 304 303 301 301 301 302 302 302
310 310 309 309 308 308 307 307 306 306 306 305 305 305 305 305 305 305 304 304 303 302 301 300 299 298 300 301 302 303 304 304 304 304 303 303 302 300 300 299 300 301
309 309 308 308 308 307 307 306 306 305 305 305 304 304 304 304 304 303 303 303 303 302 301 300 298 297 298 301 302 302 303 304 303 303 303 303 302 301 300 298 298 298
308 308 307 307 307 306 306 305 305 305 304 304 304 304 303 303 303 302 302 302 302 301 300 299 297 296 297 299 301 302 303 303 303 303 303 302 302 301 300 299 298 297
307 307 307 306 305 305 305 305 304 304 304 303 303 303 303 302 302 302 301 301 301 300 300 299 298 295 295 297 299 301 302 302 302 302 302 301 301 301 300 300 298 297
306 306 305 305 305 304 304 304 304 303 303 303 302 302 302 302 302 302 301 301 300 300 299 299 298 296 294 294 296 299 301 302 302 302 301 301 301 301 300 299 299 298
Wind_Speed
5 6 6 6 6 6 5 5 5 5 6 7 7 7 7 7 8 8 8 8 8 8 9 9 10 10 10 10 11 12 13 14 14 15 15 16 15 15 15 17 17 16
6 7 7 7 7 6 6 6 6 6 7 7 7 7 6 7 8 8 9 9 8 9 9 9 10 10 11 11 12 12 13 14 15 16 17 17 17 17 17 18 18 18
8 9 8 8 6 6 6 7 7 7 7 7 7 7 6 7 8 8 9 9 9 8 9 10 10 11 11 12 12 13 14 15 16 17 17 17 18 18 18 18 18 19
9 9 8 7 6 7 7 8 8 8 7 7 7 7 7 7 8 9 9 9 8 9 9 11 11 11 12 12 12 13 14 15 16 16 15 15 17 17 17 18 19 20
8 8 7 7 7 8 8 8 8 8 8 7 7 7 7 8 8 9 9 9 9 10 11 12 12 12 13 13 14 14 14 15 16 16 15 15 16 17 17 19 19 20
8 7 7 7 8 9 9 9 8 8 8 7 7 8 8 9 9 10 10 11 11 12 13 13 14 14 14 14 15 15 14 15 16 17 16 15 17 17 17 18 19 21
7 7 7 8 9 9 9 9 8 8 7 7 8 9 9 9 10 11 12 13 13 14 15 15 15 15 15 15 15 16 15 15 17 17 17 17 17 18 19 19 19 21
8 8 8 9 10 9 9 9 8 8 8 8 9 9 10 11 11 12 13 14 14 14 15 15 15 15 15 15 15 16 16 16 17 17 18 18 19 20 21 20 20 22
9 9 9 10 10 10 9 9 9 9 9 9 10 9 10 12 13 13 13 14 14 14 15 15 15 15 15 15 15 15 16 16 17 17 18 20 21 21 21 21 21 22
10 9 10 10 10 10 10 9 9 9 10 10 10 11 11 12 13 13 14 14 14 14 14 14 15 15 15 15 15 15 15 15 16 17 18 19 20 21 21 21 20 21
10 10 10 10 10 10 10 10 10 10 10 11 11 12 12 12 12 13 13 13 14 14 14 14 15 15 15 16 16 15 15 16 16 17 17 18 19 20 21 20 19 20
10 10 10 10 11 10 10 10 10 10 11 11 12 12 12 12 12 13 13 13 13 14 14 14 14 14 15 16 16 16 16 16 17 17 17 17 18 19 19 19 19 19
10 9 9 10 10 10 9 10 11 11 11 12 12 13 13 13 13 13 14 14 14 15 15 14 13 12 13 14 15 15 15 15 16 16 16 17 18 18 18 19 19 18
10 9 10 10 10 10 10 11 11 11 12 12 12 13 13 13 14 14 15 15 15 15 15 15 15 15 14 13 13 14 14 15 16 16 16 17 18 19 19 19 19 18
10 10 11 11 11 11 11 12 12 13 13 13 13 13 14 14 14 15 15 14 15 15 16 17 18 18 17 15 13 13 14 15 16 16 17 17 18 19 20 20 20 19
11 11 12 12 12 12 12 13 13 13 13 14 14 14 14 14 14 14 14 15 15 16 17 20 20 19 18 18 17 15 13 14 16 17 17 18 18 18 19 20 20 19
12 12 12 13 13 13 14 14 14 14 14 14 14 14 14 14 14 15 15 15 15 16 17 19 21 20 19 20 21 19 16 15 16 17 18 19 19 18 18 18 19 19
13 13 13 13 13 14 14 14 14 14 14 14 14 14 14 15 15 15 15 15 15 16 16 18 20 21 21 22 22 21 19 17 17 18 19 19 19 19 18 18 18 20
13 14 14 14 14 14 14 14 15 15 14 14 14 14 15 16 16 16 16 16 16 16 16 17 19 21 22 23 23 22 19 17 17 19 20 21 21 20 19 19 19 19
14 14 14 14 14 15 15 15 15 15 15 14 15 15 16 17 17 17 17 16 16 16 16 18 19 20 21 22 22 21 19 17 17 18 19 22 23 22 20 20 20 20
15 15 15 15 15 15 16 16 15 15 14 14 14 15 15 16 16 16 16 16 15 16 16 17 17 17 19 20 20 19 17 16 16 17 17 20 22 24 22 20 19 20
16 16 16 16 16 16 16 16 16 15 14 14 14 15 15 15 15 15 15 15 15 15 16 17 16 14 16 17 18 17 15 14 14 16 16 17 19 22 24 24 22 20
16 17 17 17 17 17 17 17 16 16 15 14 15 15 14 14 14 15 15 15 15 15 15 17 17 15 14 15 17 17 14 12 13 14 15 16 16 18 21 26 27 24
16 17 17 17 17 17 16 16 15 15 14 13 14 14 14 14 14 15 16 15 16 16 16 17 18 18 16 15 15 15 14 12 11 12 13 14 15 15 17 20 24 26
16 17 17 17 17 16 16 16 15 14 14 13 13 14 13 13 14 15 16 15 15 16 16 16 18 19 18 16 14 14 14 12 11 12 13 12 13 14 15 16 19 23
16 17 18 18 17 16 16 15 15 14 13 13 12 13 13 13 14 14 15 15 15 15 15 15 15 17 18 18 16 15 15 12 10 11 12 12 12 13 14 15 16 19
Wind_Direction
93 101 105 100 93 82 65 56 58 64 58 43 31 25 19 12 9 10 12 10 8 8 7 8 9 10 10 10 11 5 1 1 359 355 352 352 352 349 349 348 346 343
102 105 106 101 89 72 62 67 76 74 57 41 33 30 22 16 16 15 13 12 11 12 13 13 14 15 16 18 16 9 6 5 2 358 356 357 356 355 356 354 351 349
107 104 104 98 84 73 73 79 80 69 55 46 39 34 25 18 18 16 14 15 16 15 16 18 18 17 17 17 13 10 11 11 7 2 2 3 2 1 1 360 357 356
109 102 100 91 81 83 85 83 76 64 55 51 44 37 30 23 21 19 18 18 19 18 18 19 20 18 16 15 14 14 15 15 11 8 8 8 8 7 5 4 3 2
107 100 93 84 84 90 88 81 72 63 57 52 46 39 35 31 30 27 24 23 23 23 23 23 21 20 20 20 21 20 20 18 15 13 14 13 12 11 8 6 6 5
107 98 90 86 90 93 87 76 69 65 61 55 49 44 41 40 39 36 32 30 31 31 30 28 26 26 26 26 26 26 25 23 20 19 19 18 15 14 12 11 12 11
99 95 97 97 95 92 84 76 69 66 62 58 54 51 48 46 44 41 38 37 37 36 35 34 32 31 31 31 30 29 28 27 24 23 25 24 21 20 19 17 17 16
94 99 107 103 96 89 82 77 71 66 64 63 61 57 53 49 46 44 43 42 39 37 37 35 33 33 31 32 31 30 31 30 27 29 31 30 27 25 24 22 20 18
101 103 104 100 93 87 83 78 74 69 67 68 65 59 54 51 48 46 46 44 40 37 36 35 34 33 31 31 32 33 34 33 33 34 34 33 31 30 27 25 24 22
102 100 100 98 92 86 83 79 76 73 70 68 65 59 55 52 50 49 47 44 41 37 35 36 36 34 34 34 34 35 36 36 37 37 36 35 33 32 31 28 26 24
100 100 100 97 90 85 83 79 78 76 72 67 63 60 57 54 53 51 47 45 43 39 37 40 41 41 41 41 39 40 42 42 40 39 38 36 33 34 35 33 30 28
102 104 100 94 90 87 84 81 80 77 73 67 63 62 59 57 57 56 53 51 50 48 46 46 48 48 45 43 44 46 47 46 44 42 41 39 36 37 37 36 35 33
104 102 99 95 92 90 87 85 82 77 74 70 66 64 63 62 62 62 60 59 57 56 54 52 52 53 49 44 44 46 45 43 43 43 42 41 39 37 37 37 36 36
104 102 100 97 95 94 91 87 83 79 75 72 70 69 69 69 70 68 67 65 62 59 57 58 59 62 62 54 44 41 41 40 40 40 42 42 40 38 38 39 38 37
107 106 103 100 99 97 93 88 84 81 78 76 76 77 76 76 76 74 72 69 64 60 60 62 62 61 65 66 57 45 41 42 42 41 41 42 42 43 41 40 40 39
112 109 105 102 101 99 95 91 88 84 83 83 84 83 81 80 79 75 73 70 66 62 63 65 65 64 67 72 71 60 47 46 46 43 42 41 41 43 42 39 39 38
115 110 106 103 103 100 97 94 92 90 91 92 89 85 83 83 79 75 73 71 68 66 64 65 68 70 71 72 72 68 57 51 50 47 44 42 41 41 40 37 35 34
117 112 108 106 105 102 99 98 98 98 97 94 88 84 83 82 79 77 75 72 71 69 65 64 69 73 75 73 72 68 62 57 54 51 46 43 42 40 38 36 33 31
119 114 111 109 106 105 105 104 103 101 97 92 88 87 86 83 81 79 77 74 73 71 67 67 73 76 76 74 70 66 63 60 57 55 51 47 43 41 38 36 34 32
119 116 113 112 110 109 109 108 104 100 97 94 92 91 88 85 83 81 79 76 74 73 71 71 76 78 76 73 69 65 61 60 60 58 55 51 46 42 39 36 35 34
120 119 117 117 117 113 109 107 103 100 99 98 96 94 90 87 85 83 81 78 75 73 70 69 73 78 78 74 69 65 60 59 60 59 58 55 50 46 43 39 38 36
123 122 120 120 119 115 110 107 104 102 102 101 99 96 92 90 87 84 82 79 76 73 69 65 65 72 79 77 72 70 65 59 60 60 58 57 54 50 48 46 45 42
124 122 120 120 117 114 111 109 107 105 104 104 102 98 95 92 88 84 82 78 75 72 68 63 59 62 74 80 76 73 68 61 61 62 60 59 57 54 52 51 52 51
124 121 120 118 116 115 114 112 110 108 107 107 104 101 98 95 91 87 82 78 75 71 69 64 58 57 66 76 79 76 70 63 62 63 60 60 60 57 55 53 52 54
122 120 119 118 116 116 116 114 112 111 110 110 106 103 101 98 95 91 85 80 76 71 68 65 58 53 56 65 75 79 74 65 62 64 61 59 60 60 57 54 51 52
120 119 118 119 118 118 117 115 114 113 113 112 108 105 104 100 96 93 88 82 78 72 67 64 58 50 48 56 67 76 76 70 62 61 61 58 59 60 57 55 53 50